Regional Weather Roundup
Issued by NWS Sioux Falls, SD

Home | Current Version | Previous Version | Graphics & Text | Print | Product List | Glossary Off
Versions: 1 2 3 4 5 6 7 8 9 10 11 12 13 14 15 16 17 18 19 20 21 22 23 24 25 26 27 28 29 30 31 32 33 34 35 36 37 38 39 40 41 42 43 44 45 46 47 48 49 50

670
ASUS43 KFSD 270402
RWRFSD

WEATHER ROUNDUP FOR SE SOUTH DAKOTA/SW MINNESOTA/NW IOWA
NATIONAL WEATHER SERVICE SIOUX FALLS SD
1100 PM CDT MON SEP 26 2016

NOTE: "FAIR" INDICATES FEW OR NO CLOUDS BELOW 12,000 FEET WITH NO
SIGNIFICANT WEATHER AND OR OBSTRUCTIONS TO VISIBILITY.


SDZ038>040-050-052>070-270500-
SOUTHEAST SOUTH DAKOTA

CITY           SKY/WX    TMP DP  RH WIND       PRES   REMARKS
CHAMBERLAIN    CLEAR     59  41  51 NW6       30.10S
HURON          CLEAR     49  34  56 W9        30.05F
MADISON        FAIR      46  32  57 NW9       30.05S
MITCHELL       CLEAR     53  38  56 W7        30.07S
SIOUX FALLS    CLEAR     52  36  54 W7        30.04S
WINNER         FAIR      52  42  69 SW7       30.12F
YANKTON        CLEAR     52  43  71 W8        30.06S
$$

MNZ071-072-080-081-089-090-097-098-270500-
SOUTHWEST MINNESOTA

CITY           SKY/WX    TMP DP  RH WIND       PRES   REMARKS
FAIRMONT       CLEAR     54  36  50 W10       29.98S
JACKSON        CLEAR     52  32  46 W9        30.00S
LUVERNE        CLEAR     46  34  61 W7        30.03F
MARSHALL       NOT AVBL
MONTEVIDEO     CLEAR     52  36  54 NW6       29.98F
PIPESTONE      CLEAR     50  34  53 NW6       30.03S
REDWOOD FALLS  CLEAR     53  36  52 W13       29.96S
TRACY          CLEAR     53  38  56 W6        30.00S
WINDOM         CLEAR     50  36  57 W7        30.00S
WORTHINGTON    CLEAR     47  36  65 W8        30.02F
$$

IAZ001>003-012>014-020>022-031-032-NEZ013-014-SDZ071-270500-
NORTHWEST IOWA

CITY           SKY/WX    TMP DP  RH WIND       PRES   REMARKS
CHEROKEE       CLEAR     51  42  70 CALM      30.04S
DENISON        CLEAR     50  45  81 SW3       30.03F
ESTHERVILLE    CLEAR     45  38  76 W9        30.00S
LE MARS        CLEAR     54  43  66 W3        30.06S
ORANGE CITY    CLEAR     50  43  76 CALM      30.05S
SHELDON        CLEAR     48  39  71 W7        30.02F
SIOUX CITY     CLEAR     58  44  60 NW3       30.06S
SPENCER        CLEAR     44  38  79 W6        30.03S
STORM LAKE     CLEAR     50  43  76 W10       30.04F
$$

ABBREVIATIONS USED IN REMARKS
   TC - TEMPERATURE IN CELSIUS
  WCI - WIND CHILL INDEX
   HX - HEAT INDEX
  VSB - VISIBILITY





USA.gov is the U.S. government's official web portal to all federal, state and local government web resources and services.